Terminal Aerodrome Forecast
Issued by NWS Charleston, SC

Home | Current Version | Previous Version | Text Only | Print | Product List | Glossary On
Versions: 1 2 3 4 5 6 7 8 9 10 11 12 13 14 15 16 17
000
FTUS42 KCHS 290700 AAA
TAFCHS
TAF AMD
KCHS 290715Z 2907/3006 00000KT 2SM BR SCT001 SCT030
      TEMPO 2907/2908 4SM BR
     FM290900 00000KT 1/4SM FG VV001
     FM291400 25006KT 4SM BR BKN006
     FM291600 28007KT P6SM OVC015
     FM292100 VRB03KT 4SM -SHRA BR OVC012
     FM300200 36007KT P6SM OVC006=

USA.gov is the U.S. government's official web portal to all federal, state and local government web resources and services.